Regional Weather Roundup
Issued by NWS Sioux Falls, SD

Home | Current Version | Previous Version | Text Only | Print | Product List | Glossary On
Versions: 1 2 3 4 5 6 7 8 9 10 11 12 13 14 15 16 17 18 19 20 21 22 23 24 25 26 27 28 29 30 31 32 33 34 35 36 37 38 39 40 41 42 43 44 45 46 47 48 49 50
000
ASUS43 KFSD 242102
RWRFSD

WEATHER ROUNDUP FOR SE SOUTH DAKOTA/SW MINNESOTA/NW IOWA
NATIONAL WEATHER SERVICE SIOUX FALLS SD
300 PM CST SAT JAN 24 2015

NOTE: "FAIR" INDICATES FEW OR NO CLOUDS BELOW 12,000 FEET WITH NO
SIGNIFICANT WEATHER AND OR OBSTRUCTIONS TO VISIBILITY.


SDZ038>040-050-052>070-242200-
SOUTHEAST SOUTH DAKOTA

CITY           SKY/WX    TMP DP  RH WIND       PRES   REMARKS
CHAMBERLAIN    NOT AVBL
HURON          LGT RAIN  43  38  82 W5        29.58F
MADISON        MOCLDY    39  39 100 W9        29.58F
MITCHELL       LGT RAIN  44  35  70 CALM      29.60F
SIOUX FALLS    CLOUDY    42  33  70 W8        29.60F
WINNER         CLOUDY    53  36  52 W18       29.64F
YANKTON        CLOUDY    48  30  49 W7        29.63F
$$

MNZ071-072-080-081-089-090-097-098-242200-
SOUTHWEST MINNESOTA

CITY           SKY/WX    TMP DP  RH WIND       PRES   REMARKS
FAIRMONT       CLOUDY    39  32  75 W8        29.60S
JACKSON        CLOUDY    37  32  81 W7        29.60S
LUVERNE        CLOUDY    41  34  75 W6        29.60F
MARSHALL       CLOUDY    39  30  70 W10       29.60F
MONTEVIDEO     CLOUDY    37  32  81 NW5       29.59F
PIPESTONE      CLOUDY    37  34  87 W8        29.58F
REDWOOD FALLS  CLOUDY    38  33  82 W9        29.58F
TRACY          CLOUDY    40  34  79 W9        29.58F
WINDOM         CLOUDY    37  34  87 SW13      29.59S
WORTHINGTON    CLOUDY    37  30  75 W12       29.61S
$$

IAZ001>003-012>014-020>022-031-032-NEZ013-014-SDZ071-242200-
NORTHWEST IOWA

CITY           SKY/WX    TMP DP  RH WIND       PRES   REMARKS
ESTHERVILLE    CLOUDY    38  33  82 SW16      29.60F
SIOUX CITY     CLOUDY    50  32  50 W10       29.66S
SPENCER        CLOUDY    42  33  70 W14       29.62F
$$

ABBREVIATIONS USED IN REMARKS
   TC - TEMPERATURE IN CELSIUS
  WCI - WIND CHILL INDEX
   HX - HEAT INDEX
  VSB - VISIBILITY



USA.gov is the U.S. government's official web portal to all federal, state and local government web resources and services.